This demonstration page uses our WeatherBlox Daily Observations layout. Learn more.

41.55636, -103.73856

Hourly Observations for April 21, 2015

Temp ( °F °C ) Dew Point ( °F °C ) Humidity (%) Winds ( mph kmh ) Pressure ( in mb ) Visibility ( mi km ) Precip ( " mm )
12:53 am 00:53 Clear 34 1.1 27 -2.8 76 76 N 8 13 29.93 1013 10 16.0934 0 0
1:53 am 01:53 Clear 31 -0.6 25 -3.9 79 79 NNE 8 13 29.93 1014 10 16.0934 0 0
2:53 am 02:53 Clear 29 -1.7 25 -3.9 85 85 NNW 5 7 29.93 1013 10 16.0934 0 0
3:53 am 03:53 Clear 29 -1.7 25 -3.9 85 85 N 6 9 29.92 1013 10 16.0934 0 0
4:53 am 04:53 Mostly Clear 28 -2.2 24 -4.4 85 85 Calm 29.9 1013 10 16.0934 0 0
5:53 am 05:53 Mostly Clear 27 -2.8 23 -5 85 85 W 5 7 29.9 1012 10 16.0934 0 0
6:53 am 06:53 Sunny 30 -1.1 26 -3.3 85 85 Calm 29.91 1013 10 16.0934 0 0
7:53 am 07:53 Sunny 37 2.8 30 -1.1 76 76 NW 8 13 29.9 1013 10 16.0934 0 0
8:53 am 08:53 Sunny 45 7.2 31 -0.6 58 58 WNW 8 13 29.88 1012 10 16.0934 0 0
9:53 am 09:53 Sunny 51 10.6 34 1.1 52 52 W 7 11 29.87 1012 10 16.0934 0 0
10:53 am 10:53 Sunny 60 15.6 34 1.1 38 38 W 12 19 29.84 1011 10 16.0934 0 0
11:53 am 11:53 Sunny 63 17.2 31 -0.6 30 30 WNW 18 30 29.83 1010 10 16.0934 0 0
12:00 pm 12:00 Mostly Sunny 64 18 30 -1 28 28 NW 21 33 29.71 1006 10 16.0934 0 0
12:53 pm 12:53 Mostly Sunny 65 18.3 26 -3.3 23 23 WNW 21 33 29.81 1010 N/A 0 0
1:53 pm 13:53 Partly Cloudy 66 18.9 27 -2.8 23 23 undefined N/A 29.82 1010 10 16.0934 0 0
2:53 pm 14:53 Mostly Sunny 68 20 28 -2.2 22 22 NW 23 37 29.81 1010 10 16.0934 0 0
3:53 pm 15:53 Mostly Sunny 67 19.4 27 -2.8 22 22 NNW 23 37 29.83 1010 10 16.0934 0 0
4:53 pm 16:53 Mostly Sunny 64 17.8 26 -3.3 24 24 N 22 35 29.84 1010 10 16.0934 0 0
5:53 pm 17:53 Mostly Sunny 63 17.2 27 -2.8 26 26 N 20 31 29.85 1011 10 16.0934 0 0
6:53 pm 18:53 Sunny 59 15 28 -2.2 31 31 NE 14 22 29.87 1012 10 16.0934 0 0
7:53 pm 19:53 Clear 52 11.1 31 -0.6 45 45 ENE 13 20 29.9 1013 10 16.0934 0 0
8:53 pm 20:53 Mostly Clear 48 8.9 28 -2.2 46 46 ENE 9 15 29.92 1013 10 16.0934 0 0
9:53 pm 21:53 Clear 44 6.7 26 -3.3 49 49 SSE 5 7 29.96 1014 10 16.0934 0 0
10:53 pm 22:53 Clear 41 5 26 -3.3 55 55 E 7 11 29.95 1014 10 16.0934 0 0
11:53 pm 23:53 Clear 38 3.3 27 -2.8 65 65 ESE 7 11 29.96 1015 10 16.0934 0 0

Powered by AerisWeather